403P/Catalina (2020)

Japanese version
Home page
Updated on April 4, 2021

---------------------------------------------------------------------

* Profile

Designation 403P/2020 T1
Recovery Date October 15, 2020
Magnitude 19.7 mag
Recoverer G. J. Leonard (Mt. Lemmon)

* Pictures

* Orbital Elements

Epoch 2020 Sept. 28.0 TT = JDT 2459120.5
T 2020 Sept. 16.37702 TT                                Rudenko
q   2.6952863            (2000.0)            P               Q
n   0.07799196     Peri.  277.67282     +0.14162373     -0.98813274
a   5.4254547      Node   163.81703     +0.97138488     +0.12715029
e   0.5032147      Incl.   12.31997     +0.19066761     +0.08617710
P  12.6
From 188 observations 2007 Nov. 3-2021 Jan. 22, mean residual 0".7.

* Magnitudes Graph

        m1 = 10.5 + 5 log d + 15.0 log r(t - 50)

---------------------------------------------------------------------

The orbital elements are published on M.P.E.C. 2021-B143.
The magnitudes graphs are made with Comet for Windows.

---------------------------------------------------------------------

Copyright(C) Seiichi Yoshida (comet@aerith.net). All rights reserved.